Погода в Давыдове

Россия / Ярославская область     57°18′58″N   38°50′41″E
темп.,
°C
ветер,
м/с
пор.,
м/с
влажн.,
%
обл.,
%
осадки,
мм/ч
давл.,
гПа
погр.,
м
13 мая, чт
чт1300:00+13в279482 0.0 1020212
03:00+11вюв26975 0.0 1020156
06:00+12юв279696 0.0 1020262
09:00+14юв378742 0.0 1019644
12:00+17юв476666 0.2 10191377
15:00+20ююв375277 0.2 10161749
18:00+13ююв1396100 7.6 1015173
21:00+11ю279613 9.9 1015157
14 мая, пт
пт1400:00+10ю289333 0.0 1016157
03:00+10ю2696100 0.0 1017148
06:00+11ююв26955 0.0 1017212
09:00+15ю357441 0.0 1017716
12:00+19ю3649100 0.0 10171654
15:00+21ююв374881 0.0 10161956
18:00+17ю3884100 1.4 1015344
21:00+13вюв2897100 2.3 1014160
15 мая, сб
сб1500:00+14в4998100 9.4 1013282
03:00+13юв3998100 9.4 1011241
06:00+14юв41395100 0.0 1010381
09:00+19ююв48825 0.4 1009462
12:00+22ю51266100 0.3 10081322
15:00+18ю4108794 2.8 1008696
18:00+18ююз41083100 1.4 1007748
21:00+14ю412920 2.1 1008470
16 мая, вс
вс1600:00+13ююз4129410 0.0 1009633
03:00+13ююз5129358 0.0 1010704
06:00+13юз4119494 0.0 1012502
09:00+17юз48747 0.0 1012745
12:00+19юз576429 0.6 10131482
15:00+19юз376988 2.2 1013667
18:00+17зюз268197 1.5 1013436
21:00+13юз229323 1.6 101422
17 мая, пн
пн1700:00+12юз12955 0.0 101514
03:00+11юз119551 0.0 101610
06:00+13ююв1193100 0.0 101757
09:00+17ююв1276100 0.0 1017421
12:00+21ююв2456100 0.0 10161321
15:00+22юв3454100 0.0 10151348
18:00+21вюв376898 0.0 1014771
21:00+16в3129291 0.7 1013312